Location: Newark
(43.6583°N, 1.6617°E)
Time: 06:23:19
(UTC+00:00)

Vanguard 2 Rocket - Pass Details

Date: 28 August 2019
Orbit: 554 x 3326 km, 32.9° (Epoch: 21 September)

Event Time Altitude Azimuth Distance (km) Brightness Sun altitude
Exits shadow 02:33:14 38° 213° (SSW) 2,735 8.7 -25.5°
Maximum altitude 02:37:32 51° 167° (SSE) 2,698 9.0 -25.0°
Drops below altitude 10° 02:54:02 10° 99° (E) 5,986 11.5 -22.8°
Sets 02:59:23 0° 95° (E) 7,205 12.1 -22.1°
